Location: Oshawa
(43.9000°N, 78.8670°W)
Time: 18:44:53
(UTC-05:00)

Cosmos 839 Rocket - Visible Passes

Search period start: 13 February 2016 00:00
Search period end: 23 February 2016 00:00
Orbit: 956 x 2096 km, 65.9° (Epoch: 12 February)

Date Brightness Start Highest point End Pass type
(mag) Time Alt. Az. Time Alt. Az. Time Alt. Az.
13 Feb 8.0 19:16:09 10° WNW 19:21:42 15° W 19:26:52 10° WSW visible
14 Feb 7.1 06:17:28 10° SSE 06:26:36 36° ESE 06:37:00 10° NE visible
14 Feb 7.7 18:32:21 10° NW 18:40:37 24° W 18:47:57 10° SW visible
15 Feb 7.6 05:37:20 10° SSE 05:45:18 25° E 05:54:07 10° NE visible
16 Feb 7.8 04:58:13 10° SE 05:04:09 17° E 05:10:31 10° ENE visible
17 Feb 6.5 06:10:37 10° S 06:20:32 50° ESE 06:31:57 10° NE visible
17 Feb 8.2 18:28:31 10° WNW 18:34:07 15° W 18:39:18 10° WSW visible
18 Feb 7.0 05:29:51 10° SSE 05:39:02 36° ESE 05:49:25 10° NE visible
19 Feb 7.4 04:49:44 10° SSE 04:57:43 25° E 05:06:32 10° NE visible
20 Feb 7.6 04:10:41 10° SE 04:16:35 16° E 04:22:54 10° ENE visible
20 Feb 6.0 06:04:13 10° SSW 06:14:39 66° ESE 06:26:43 10° NE visible
21 Feb 6.4 05:23:00 10° S 05:32:57 49° ESE 05:44:22 10° NE visible
22 Feb 6.8 04:42:15 10° SSE 04:51:27 36° ESE 05:01:49 10° NE visible
